Total_Precipitation_Accumulation
0.00 0.00 0.00 0.00 0.02 0.00 0.00 0.00 0.00 0.00 0.00 0.00 0.00 0.00 0.00 0.00 0.03 0.15 0.05 0.06 0.03 0.03 0.09 0.54 1.00 0.96 0.76 0.56 0.51 0.33 0.26 0.25 0.25 0.23 0.15 0.16 0.22 0.36 0.47 0.63 0.67 0.91 0.85 0.64 0.45 0.27 0.18 0.14 0.13
0.00 0.00 0.01 0.04 0.03 0.00 0.00 0.00 0.00 0.00 0.00 0.00 0.00 0.00 0.00 0.00 0.03 0.06 0.03 0.04 0.08 0.08 0.16 0.79 1.04 0.93 0.55 0.57 0.56 0.52 0.36 0.25 0.27 0.34 0.31 0.22 0.23 0.38 0.53 0.71 0.80 0.98 0.77 0.55 0.35 0.24 0.16 0.15 0.14
0.00 0.00 0.00 0.01 0.00 0.00 0.00 0.00 0.00 0.00 0.00 0.00 0.00 0.00 0.00 0.02 0.04 0.03 0.07 0.07 0.09 0.11 0.30 0.74 1.07 1.04 0.77 0.91 0.69 0.62 0.62 0.42 0.30 0.31 0.36 0.30 0.25 0.38 0.69 0.83 0.89 0.89 0.57 0.40 0.28 0.22 0.18 0.16 0.20
0.00 0.00 0.00 0.00 0.00 0.00 0.00 0.00 0.00 0.00 0.00 0.00 0.00 0.03 0.04 0.08 0.09 0.06 0.08 0.10 0.11 0.12 0.40 0.71 1.14 1.02 0.94 0.87 1.12 0.75 0.50 0.37 0.32 0.28 0.24 0.25 0.27 0.41 0.59 0.74 0.86 0.79 0.42 0.34 0.25 0.23 0.22 0.21 0.20
0.00 0.00 0.00 0.00 0.00 0.00 0.00 0.00 0.00 0.00 0.00 0.01 0.01 0.06 0.10 0.07 0.04 0.04 0.12 0.23 0.23 0.13 0.39 0.86 1.25 1.22 1.03 1.11 1.75 1.55 0.85 0.41 0.32 0.22 0.19 0.30 0.30 0.40 0.49 0.66 0.77 0.63 0.34 0.21 0.16 0.14 0.17 0.20 0.15
0.00 0.00 0.00 0.00 0.00 0.00 0.00 0.00 0.00 0.00 0.01 0.03 0.02 0.08 0.26 0.19 0.11 0.15 0.22 0.32 0.39 0.26 0.28 0.53 0.76 1.05 1.26 1.28 1.20 1.31 1.27 0.72 0.48 0.36 0.35 0.32 0.41 0.43 0.39 0.60 0.65 0.57 0.31 0.24 0.19 0.18 0.21 0.16 0.10
0.00 0.00 0.00 0.00 0.00 0.00 0.00 0.00 0.00 0.00 0.00 0.02 0.07 0.12 0.31 0.46 0.35 0.33 0.41 0.50 0.60 0.57 0.44 0.54 0.59 0.72 1.15 1.34 1.22 1.32 1.14 0.77 0.33 0.33 0.38 0.31 0.34 0.44 0.47 0.66 0.74 0.57 0.33 0.24 0.19 0.20 0.17 0.11 0.07
0.00 0.00 0.00 0.00 0.00 0.00 0.00 0.00 0.00 0.00 0.00 0.00 0.05 0.20 0.49 0.50 0.71 1.08 1.50 1.11 0.95 0.84 0.74 0.79 0.75 0.62 0.56 0.58 0.68 0.85 1.02 0.89 0.50 0.30 0.13 0.10 0.14 0.21 0.21 0.28 0.75 0.63 0.49 0.31 0.14 0.14 0.17 0.14 0.05
0.00 0.00 0.00 0.00 0.00 0.00 0.00 0.00 0.00 0.00 0.00 0.02 0.03 0.14 0.31 0.50 0.71 1.05 2.19 2.58 1.96 1.45 1.05 0.97 0.81 0.55 0.44 0.42 0.47 0.51 0.70 0.74 0.57 0.36 0.13 0.07 0.08 0.10 0.18 0.24 0.47 0.72 0.54 0.46 0.22 0.13 0.12 0.08 0.06
0.02 0.00 0.00 0.00 0.00 0.00 0.00 0.00 0.00 0.00 0.02 0.05 0.06 0.11 0.14 0.40 0.64 1.24 1.97 2.02 2.58 2.14 1.82 1.34 0.92 0.59 0.36 0.37 0.39 0.54 0.55 0.50 0.55 0.53 0.39 0.32 0.27 0.20 0.17 0.29 0.33 0.51 0.66 0.45 0.24 0.15 0.04 0.04 0.12
0.07 0.02 0.00 0.00 0.00 0.00 0.00 0.00 0.00 0.00 0.03 0.01 0.03 0.09 0.16 0.30 0.45 1.19 1.37 1.62 1.68 1.93 2.08 1.58 1.08 0.62 0.46 0.39 0.42 0.53 0.48 0.43 0.45 0.55 0.49 0.47 0.30 0.14 0.17 0.18 0.32 0.24 0.37 0.40 0.29 0.16 0.03 0.01 0.03
0.14 0.04 0.01 0.00 0.00 0.00 0.00 0.00 0.00 0.00 0.00 0.01 0.05 0.18 0.31 0.38 0.49 0.70 1.26 1.48 1.47 1.76 1.92 1.89 1.48 1.14 0.86 0.70 0.54 0.55 0.51 0.39 0.35 0.41 0.54 0.63 0.54 0.29 0.28 0.21 0.16 0.17 0.19 0.27 0.29 0.17 0.08 0.05 0.04
0.23 0.06 0.01 0.00 0.00 0.00 0.00 0.00 0.00 0.00 0.00 0.02 0.16 0.32 0.38 0.45 0.66 0.65 0.81 1.52 1.76 1.91 2.00 2.18 1.95 1.70 1.39 1.06 1.08 0.99 0.75 0.53 0.41 0.41 0.51 0.77 0.84 0.54 0.44 0.35 0.19 0.15 0.14 0.13 0.21 0.17 0.15 0.06 0.04
0.12 0.08 0.02 0.00 0.00 0.00 0.00 0.00 0.00 0.00 0.00 0.02 0.17 0.33 0.37 0.42 0.60 0.70 0.66 1.14 2.02 2.52 2.72 2.68 2.62 2.34 2.01 1.56 1.13 1.04 0.84 0.55 0.45 0.38 0.39 0.43 0.46 0.50 0.47 0.43 0.25 0.15 0.15 0.14 0.06 0.05 0.09 0.07 0.05
0.15 0.16 0.10 0.04 0.02 0.01 0.00 0.00 0.00 0.00 0.00 0.00 0.06 0.18 0.32 0.36 0.40 0.60 1.01 0.96 1.37 2.33 3.00 3.13 2.50 2.97 2.56 2.16 1.38 1.01 0.90 0.69 0.42 0.39 0.31 0.34 0.28 0.28 0.42 0.47 0.42 0.31 0.27 0.18 0.18 0.14 0.14 0.19 0.26
0.41 0.54 0.41 0.09 0.03 0.01 0.01 0.01 0.00 0.00 0.00 0.00 0.00 0.04 0.11 0.12 0.15 0.28 0.76 0.95 1.05 1.44 1.65 2.81 3.72 3.54 3.80 2.88 1.95 0.95 0.81 0.82 0.76 0.43 0.44 0.48 0.39 0.27 0.37 0.52 0.56 0.48 0.47 0.31 0.34 0.30 0.26 0.27 0.20
0.88 0.83 0.36 0.06 0.03 0.03 0.01 0.00 0.00 0.00 0.00 0.00 0.00 0.00 0.02 0.09 0.06 0.07 0.15 0.39 0.60 0.81 1.43 1.56 2.64 3.45 3.60 3.09 2.27 2.10 1.13 0.88 0.99 0.74 0.51 0.49 0.48 0.37 0.33 0.41 0.49 0.50 0.50 0.35 0.28 0.29 0.21 0.22 0.20
0.84 0.20 0.06 0.04 0.04 0.07 0.02 0.01 0.00 0.00 0.00 0.00 0.00 0.00 0.00 0.00 0.02 0.03 0.06 0.11 0.15 0.16 0.49 1.06 1.56 1.47 1.70 2.19 2.54 2.81 2.51 1.97 1.37 1.03 0.66 0.59 0.58 0.57 0.49 0.47 0.54 0.38 0.38 0.30 0.23 0.18 0.19 0.16 0.16
0.13 0.14 0.05 0.02 0.02 0.08 0.02 0.01 0.01 0.00 0.00 0.00 0.00 0.00 0.00 0.00 0.00 0.01 0.02 0.05 0.06 0.09 0.13 0.28 0.61 0.89 1.05 1.36 2.07 2.60 2.28 1.98 2.45 2.10 1.42 0.89 0.79 0.73 0.59 0.45 0.53 0.42 0.37 0.37 0.29 0.24 0.17 0.11 0.13
0.30 0.36 0.22 0.10 0.13 0.15 0.04 0.03 0.00 0.01 0.00 0.00 0.00 0.00 0.00 0.00 0.00 0.00 0.00 0.00 0.01 0.03 0.07 0.23 0.27 0.44 0.47 0.67 1.25 2.16 2.53 2.09 1.96 2.39 2.42 2.07 1.19 0.87 0.83 0.64 0.40 0.33 0.34 0.41 0.38 0.30 0.23 0.15 0.14
0.62 0.33 0.21 0.26 0.25 0.26 0.14 0.11 0.01 0.00 0.00 0.00 0.00 0.00 0.00 0.00 0.00 0.00 0.00 0.00 0.00 0.01 0.02 0.13 0.21 0.25 0.30 0.35 0.48 1.06 2.06 2.66 2.51 1.98 1.62 2.25 2.49 1.34 0.83 0.78 0.72 0.43 0.39 0.43 0.33 0.31 0.32 0.28 0.13
0.66 0.21 0.12 0.33 0.57 0.55 0.13 0.20 0.01 0.00 0.00 0.00 0.00 0.00 0.00 0.00 0.00 0.00 0.00 0.00 0.01 0.05 0.08 0.13 0.22 0.25 0.23 0.26 0.31 0.51 0.81 1.18 1.79 2.20 1.83 1.49 1.76 1.69 1.24 0.71 0.72 0.73 0.50 0.44 0.34 0.28 0.37 0.42 0.28
0.34 0.17 0.27 0.48 0.79 0.80 0.43 0.30 0.03 0.00 0.00 0.00 0.00 0.00 0.00 0.00 0.00 0.00 0.00 0.00 0.00 0.02 0.06 0.08 0.16 0.17 0.20 0.29 0.28 0.32 0.41 0.53 0.64 1.06 1.68 1.88 1.57 1.55 1.59 1.10 0.81 0.87 0.65 0.43 0.42 0.33 0.30 0.28 0.27
0.43 0.58 0.93 1.13 1.53 2.03 0.63 0.28 0.07 0.00 0.00 0.00 0.00 0.00 0.00 0.00 0.00 0.00 0.00 0.00 0.00 0.00 0.01 0.03 0.04 0.06 0.12 0.19 0.22 0.20 0.21 0.33 0.50 0.56 0.73 0.88 1.40 1.63 1.39 1.27 1.08 0.88 1.13 0.85 0.53 0.51 0.42 0.34 0.33
1.30 1.59 2.69 3.16 3.28 1.56 0.10 0.16 0.09 0.00 0.00 0.00 0.00 0.00 0.00 0.00 0.00 0.00 0.00 0.00 0.00 0.00 0.00 0.01 0.04 0.05 0.05 0.10 0.16 0.17 0.18 0.20 0.26 0.29 0.43 0.51 0.50 0.72 1.11 1.31 1.16 1.04 1.03 1.36 1.48 1.22 1.02 0.95 0.91
1.16 1.19 1.74 1.48 0.94 0.35 0.04 0.07 0.01 0.00 0.00 0.00 0.00 0.00 0.00 0.00 0.00 0.00 0.00 0.00 0.00 0.00 0.00 0.02 0.05 0.06 0.03 0.03 0.09 0.15 0.15 0.15 0.12 0.11 0.16 0.27 0.40 0.43 0.46 0.62 0.85 1.09 1.06 1.01 1.08 1.19 1.07 1.03 1.00
1.35 1.67 0.84 1.00 0.50 0.46 0.20 0.04 0.01 0.01 0.01 0.00 0.00 0.00 0.00 0.00 0.00 0.00 0.00 0.00 0.00 0.00 0.00 0.03 0.04 0.03 0.02 0.02 0.04 0.09 0.09 0.11 0.11 0.09 0.07 0.10 0.20 0.37 0.38 0.47 0.55 0.60 0.83 1.20 1.45 1.47 1.25 1.16 1.09
0.89 0.77 1.33 1.89 1.50 0.60 0.36 0.12 0.14 0.08 0.03 0.01 0.00 0.00 0.00 0.00 0.00 0.00 0.00 0.00 0.00 0.01 0.02 0.03 0.04 0.05 0.05 0.03 0.03 0.04 0.06 0.10 0.16 0.19 0.23 0.17 0.18 0.28 0.45 0.52 0.53 0.68 0.91 1.01 1.48 1.70 1.62 1.80 1.74
0.89 1.32 1.26 1.30 1.00 0.91 0.85 0.29 0.22 0.14 0.06 0.05 0.03 0.02 0.01 0.01 0.00 0.00 0.00 0.00 0.00 0.00 0.02 0.06 0.10 0.16 0.17 0.14 0.11 0.05 0.06 0.11 0.14 0.11 0.12 0.19 0.28 0.31 0.35 0.44 0.67 0.74 0.79 0.94 1.23 1.45 1.59 1.68 1.78
0.66 0.48 0.62 1.04 0.93 0.73 0.82 0.52 0.42 0.33 0.23 0.20 0.13 0.12 0.08 0.06 0.04 0.02 0.01 0.01 0.01 0.01 0.01 0.04 0.07 0.12 0.15 0.19 0.21 0.17 0.13 0.11 0.13 0.16 0.21 0.23 0.20 0.26 0.42 0.55 0.69 0.98 1.12 1.07 1.25 1.38 1.41 1.47 1.44